Weather History for Council Bluffs, IA

Change the Weather History Date:

Thursday, April 25, 2013

  Actual Average Record
Temperature  
Mean Temperature 50 °F -  
Max Temperature 68 °F 63 °F 89 °F (2012)
Min Temperature 33 °F 45 °F 33 °F (2013)
Degree Days  
Heating Degree Days 14    
Moisture  
Dew Point 32 °F    
Average Humidity 55    
Maximum Humidity 87    
Minimum Humidity 26    
Precipitation  
Precipitation 0.00 in - - ()
Sea Level Pressure  
Sea Level Pressure 30.16 in    
Wind  
Wind Speed 8 mph (SSW)    
Max Wind Speed 21 mph    
Max Gust Speed 30 mph    
Visibility 10 miles    
Events      
Averages and records for this station are not official NWS values.
T = Trace of Precipitation, MM = Missing Value Source: NWS Daily Summary

Daily Weather History Graph

Daily Weather History Graph

Search for Another Location

Airport:

Trip Planner

Search our weather history database for the weather conditions in past years. The results will help you decide how hot, cold, wet, or windy it might be!

Date:

Astronomy

Apr. 25, 2013 Rise Set
Actual Time 6:28 AM CDT 8:14 PM CDT
Civil Twilight 5:58 AM CDT 8:43 PM CDT
Nautical Twilight 5:23 AM CDT 9:19 PM CDT
Astronomical Twilight 4:44 AM CDT 9:58 PM CDT
Moon 8:28 PM CDT 6:12 AM CDT
Length of Visible Light 14h 44m
Length of Day
13h 45m
Full, 100% of the Moon is Illuminated
Apr 25
Full
Apr 25
Full
May 2
Last Quarter
May 9
New
May 17
First Quarter

Hourly Weather History & Observations

Time (CDT) Temp. Windchill Dew Point Humidity Pressure Visibility Wind Dir Wind Speed Gust Speed Precip Events Conditions
12:15 AM 39.2 °F 35.0 °F 32.0 °F 75% 30.19 in 10.0 mi West 5.8 mph - N/A   Clear
12:35 AM 39.2 °F 35.0 °F 32.0 °F 75% 30.20 in 10.0 mi West 5.8 mph - N/A   Clear
12:55 AM 39.2 °F 35.0 °F 32.0 °F 75% 30.19 in 10.0 mi WNW 5.8 mph - N/A   Clear
1:15 AM 39.2 °F 35.9 °F 32.0 °F 75% 30.19 in 10.0 mi NW 4.6 mph - N/A   Clear
1:55 AM 39.2 °F 35.9 °F 30.2 °F 70% 30.19 in 10.0 mi NW 4.6 mph - N/A   Clear
2:15 AM 39.2 °F 35.9 °F 30.2 °F 70% 30.20 in 10.0 mi WNW 4.6 mph - N/A   Clear
2:35 AM 37.4 °F 32.8 °F 30.2 °F 75% 30.20 in 10.0 mi WNW 5.8 mph - N/A   Clear
2:55 AM 37.4 °F 33.8 °F 30.2 °F 75% 30.19 in 10.0 mi West 4.6 mph - N/A   Clear
3:15 AM 35.6 °F 31.7 °F 30.2 °F 81% 30.19 in 10.0 mi WSW 4.6 mph - N/A   Clear
3:35 AM 35.6 °F 31.7 °F 30.2 °F 81% 30.19 in 10.0 mi SW 4.6 mph - N/A   Clear
3:55 AM 35.6 °F 30.7 °F 32.0 °F 87% 30.20 in 10.0 mi SSW 5.8 mph - N/A   Clear
4:15 AM 35.6 °F 29.2 °F 32.0 °F 87% 30.20 in 10.0 mi SSW 8.1 mph - N/A   Clear
4:35 AM 35.6 °F 31.7 °F 30.2 °F 81% 30.20 in 10.0 mi SW 4.6 mph - N/A   Clear
4:55 AM 33.8 °F 29.6 °F 30.2 °F 87% 30.20 in 10.0 mi SW 4.6 mph - N/A   Clear
5:15 AM 33.8 °F 28.6 °F 30.2 °F 87% 30.21 in 10.0 mi SW 5.8 mph - N/A   Clear
5:35 AM 33.8 °F 28.6 °F 30.2 °F 87% 30.22 in 10.0 mi SW 5.8 mph - N/A   Clear
5:55 AM 33.8 °F 28.6 °F 30.2 °F 87% 30.22 in 10.0 mi SW 5.8 mph - N/A   Clear
6:15 AM 33.8 °F 27.7 °F 30.2 °F 87% 30.22 in 10.0 mi WSW 6.9 mph - N/A   Clear
6:35 AM 33.8 °F 29.6 °F 30.2 °F 87% 30.22 in 10.0 mi WSW 4.6 mph - N/A   Clear
6:55 AM 33.8 °F 30.8 °F 30.2 °F 87% 30.22 in 10.0 mi WSW 3.5 mph - N/A   Clear
7:15 AM 35.6 °F 31.7 °F 30.2 °F 81% 30.23 in 10.0 mi WSW 4.6 mph - N/A   Clear
7:35 AM 35.6 °F 30.7 °F 32.0 °F 87% 30.24 in 10.0 mi SSW 5.8 mph - N/A   Clear
7:55 AM 37.4 °F 31.4 °F 32.0 °F 81% 30.25 in 10.0 mi SSW 8.1 mph - N/A   Clear
8:15 AM 37.4 °F 31.4 °F 32.0 °F 81% 30.25 in 10.0 mi SSW 8.1 mph - N/A   Clear
8:35 AM 39.2 °F 33.6 °F 33.8 °F 81% 30.26 in 10.0 mi SW 8.1 mph - N/A   Clear
8:55 AM 39.2 °F 34.2 °F 33.8 °F 81% 30.26 in 10.0 mi SW 6.9 mph - N/A   Clear
9:15 AM 42.8 °F 39.3 °F 33.8 °F 70% 30.25 in 10.0 mi SW 5.8 mph - N/A   Clear
9:35 AM 44.6 °F 40.7 °F 33.8 °F 66% 30.25 in 10.0 mi SSW 6.9 mph - N/A   Clear
9:55 AM 44.6 °F 41.4 °F 33.8 °F 66% 30.25 in 10.0 mi WSW 5.8 mph - N/A   Clear
10:15 AM 46.4 °F 44.3 °F 33.8 °F 62% 30.26 in 10.0 mi SSW 4.6 mph - N/A   Clear
10:35 AM 48.2 °F - 33.8 °F 58% 30.25 in 10.0 mi SW 11.5 mph - N/A   Clear
10:55 AM 50.0 °F - 33.8 °F 54% 30.25 in 10.0 mi WSW 10.4 mph - N/A   Clear
11:15 AM 51.8 °F - 33.8 °F 50% 30.25 in 10.0 mi SW 9.2 mph 15.0 mph N/A   Clear
11:35 AM 51.8 °F - 32.0 °F 47% 30.24 in 10.0 mi SW 8.1 mph - N/A   Clear
11:55 AM 53.6 °F - 32.0 °F 44% 30.23 in 10.0 mi SW 8.1 mph - N/A   Clear
12:15 PM 53.6 °F - 32.0 °F 44% 30.23 in 10.0 mi SSW 9.2 mph - N/A   Clear
12:35 PM 57.2 °F - 32.0 °F 38% 30.22 in 10.0 mi SW 8.1 mph 17.3 mph N/A   Clear
12:55 PM 57.2 °F - 32.0 °F 38% 30.21 in 10.0 mi South 6.9 mph 16.1 mph N/A   Clear
1:15 PM 59.0 °F - 32.0 °F 36% 30.19 in 10.0 mi South 13.8 mph - N/A   Clear
1:35 PM 59.0 °F - 30.2 °F 34% 30.18 in 10.0 mi SSW 11.5 mph 19.6 mph N/A   Clear
1:55 PM 60.8 °F - 30.2 °F 31% 30.17 in 10.0 mi SSW 11.5 mph 19.6 mph N/A   Clear
2:15 PM 62.6 °F - 32.0 °F 32% 30.16 in 10.0 mi SSW 13.8 mph 20.7 mph N/A   Clear
2:35 PM 62.6 °F - 30.2 °F 30% 30.15 in 10.0 mi South 13.8 mph - N/A   Clear
2:55 PM 64.4 °F - 32.0 °F 30% 30.13 in 10.0 mi SSW 13.8 mph 24.2 mph N/A   Clear
3:15 PM 64.4 °F - 30.2 °F 28% 30.12 in 10.0 mi SSW 16.1 mph 23.0 mph N/A   Clear
3:35 PM 64.4 °F - 30.2 °F 28% 30.11 in 10.0 mi SSW 17.3 mph 24.2 mph N/A   Clear
3:55 PM 64.4 °F - 32.0 °F 30% 30.10 in 10.0 mi South 18.4 mph 25.3 mph N/A   Clear
4:15 PM 66.2 °F - 32.0 °F 28% 30.09 in 10.0 mi South 17.3 mph - N/A   Clear
4:35 PM 66.2 °F - 33.8 °F 30% 30.08 in 10.0 mi South 19.6 mph - N/A   Clear
4:55 PM 66.2 °F - 33.8 °F 30% 30.07 in 10.0 mi South 18.4 mph 25.3 mph N/A   Clear
5:15 PM 68.0 °F - 33.8 °F 28% 30.07 in 10.0 mi SSW 17.3 mph 25.3 mph N/A   Clear
5:35 PM 68.0 °F - 32.0 °F 26% 30.06 in 10.0 mi South 20.7 mph 27.6 mph N/A   Clear
5:55 PM 68.0 °F - 32.0 °F 26% 30.05 in 10.0 mi South 19.6 mph 29.9 mph N/A   Clear
6:15 PM 66.2 °F - 32.0 °F 28% 30.05 in 10.0 mi South 17.3 mph 26.5 mph N/A   Clear
6:35 PM 66.2 °F - 32.0 °F 28% 30.04 in 10.0 mi South 20.7 mph 28.8 mph N/A   Clear
6:55 PM 66.2 °F - 33.8 °F 30% 30.04 in 10.0 mi SSW 17.3 mph 25.3 mph N/A   Clear
7:15 PM 66.2 °F - 33.8 °F 30% 30.03 in 10.0 mi South 15.0 mph 24.2 mph N/A   Clear
7:35 PM 64.4 °F - 33.8 °F 32% 30.03 in 10.0 mi South 16.1 mph - N/A   Clear
7:55 PM 64.4 °F - 33.8 °F 32% 30.03 in 10.0 mi South 15.0 mph - N/A   Clear
8:15 PM 62.6 °F - 33.8 °F 34% 30.03 in 10.0 mi South 12.7 mph - N/A   Clear
8:35 PM 60.8 °F - 33.8 °F 36% 30.03 in 10.0 mi South 9.2 mph - N/A   Clear
8:55 PM 60.8 °F - 33.8 °F 36% 30.04 in 10.0 mi South 12.7 mph - N/A   Clear
9:15 PM 60.8 °F - 33.8 °F 36% 30.05 in 10.0 mi South 10.4 mph - N/A   Clear
9:35 PM 59.0 °F - 33.8 °F 39% 30.05 in 10.0 mi South 10.4 mph - N/A   Clear
9:55 PM 57.2 °F - 35.6 °F 44% 30.06 in 10.0 mi South 11.5 mph - N/A   Clear
10:15 PM 57.2 °F - 35.6 °F 44% 30.06 in 10.0 mi South 12.7 mph - N/A   Clear
10:35 PM 57.2 °F - 33.8 °F 41% 30.07 in 10.0 mi South 12.7 mph - N/A   Clear
10:55 PM 55.4 °F - 35.6 °F 47% 30.07 in 10.0 mi South 11.5 mph - N/A   Clear
11:15 PM 55.4 °F - 35.6 °F 47% 30.07 in 10.0 mi South 11.5 mph - N/A   Partly Cloudy
11:35 PM 55.4 °F - 35.6 °F 47% 30.07 in 10.0 mi South 12.7 mph - N/A   Clear
11:55 PM 55.4 °F - 37.4 °F 51% 30.07 in 10.0 mi South 13.8 mph - N/A   Clear